Terminal Aerodrome Forecast
Issued by NWS

Home | Current Version | Previous Version | Text Only | Print | Product List | Glossary On
Versions: 1 2 3 4 5 6 7 8 9 10 11 12 13 14 15 16 17 18 19 20 21
000
FTUS43 KILX 172300
TAFDEC
TAF
KDEC 172322Z 1800/1824 11004KT P6SM SCT090
     FM180900 05003KT 5SM BR SCT250
     FM181400 08008KT P6SM SCT040=

USA.gov is the U.S. government's official web portal to all federal, state and local government web resources and services.